Weather History for Poznan, Poland

Change the Weather History Date:

Tuesday, February 5, 2013

  Actual Average Record
Temperature  
Mean Temperature 38 °F -  
Max Temperature 44 °F 37 °F 59 °F (2004)
Min Temperature 33 °F 26 °F 3 °F (2012)
Degree Days  
Heating Degree Days 26    
Moisture  
Dew Point 32 °F    
Average Humidity 78    
Maximum Humidity 93    
Minimum Humidity 61    
Precipitation  
Precipitation 0.04 in 0.03 in - ()
Sea Level Pressure  
Sea Level Pressure 29.47 in    
Wind  
Wind Speed 11 mph ()    
Max Wind Speed 26 mph    
Max Gust Speed 45 mph    
Visibility 7.0 miles    
Events Rain , Hail , Thunderstorm    
Averages and records for this station are not official NWS values.
T = Trace of Precipitation, MM = Missing Value Source: Averaged Metar Reports

Daily Weather History Graph

Daily Weather History Graph

Search for Another Location

Airport:

Trip Planner

Search our weather history database for the weather conditions in past years. The results will help you decide how hot, cold, wet, or windy it might be!

Date:

Astronomy

Feb. 05, 2013 Rise Set
Actual Time 7:27 AM CET 4:46 PM CET
Civil Twilight 6:50 AM CET 5:23 PM CET
Nautical Twilight 6:10 AM CET 6:04 PM CET
Astronomical Twilight 5:30 AM CET 6:43 PM CET
Moon 3:03 AM CET (2/5) 11:32 AM CET (2/5)
Length of Visible Light 10h 32m
Length of Day
9h 19m
Waning Crescent, 29% of the Moon is Illuminated
Feb 5
Waning Crescent
Feb 10
New
Feb 17
First Quarter
Feb 25
Full
Mar 4
Last Quarter

Hourly Weather History & Observations

Time (CET) Temp. Windchill Dew Point Humidity Pressure Visibility Wind Dir Wind Speed Gust Speed Precip Events Conditions
12:00 AM 37.4 °F 29.8 °F 33.8 °F 87% 29.59 in - SW 11.5 mph - N/A   Clear
12:30 AM 39.2 °F 32.0 °F 32.0 °F 75% 29.59 in 6.2 mi WSW 11.5 mph - N/A   Partly Cloudy
1:00 AM 39 °F - 34 °F 75% 29.61 in 12 mi WSW 13.4 mph - -   Mostly Cloudy
1:00 AM 39.2 °F 31.2 °F 32.0 °F 75% 29.59 in 6.2 mi WSW 13.8 mph - N/A   Partly Cloudy
1:30 AM 39.2 °F 31.2 °F 33.8 °F 81% 29.59 in - WSW 13.8 mph - N/A   Clear
2:00 AM 39.2 °F 31.2 °F 33.8 °F 81% 29.59 in 6.2 mi WSW 13.8 mph - N/A   Mostly Cloudy
2:30 AM 39.2 °F 31.6 °F 33.8 °F 81% 29.59 in 6.2 mi SW 12.7 mph - N/A   Mostly Cloudy
3:00 AM 37.4 °F 29.8 °F 32.0 °F 81% 29.59 in 6.2 mi SW 11.5 mph - N/A   Partly Cloudy
3:30 AM 37.4 °F 30.3 °F 32.0 °F 81% 29.59 in 6.2 mi WSW 10.4 mph - N/A   Partly Cloudy
4:00 AM 37 °F - 33 °F 79% 29.61 in 12 mi WSW 11.2 mph - -   Mostly Cloudy
4:00 AM 37.4 °F 29.8 °F 32.0 °F 81% 29.56 in 6.2 mi SW 11.5 mph - N/A   Mostly Cloudy
4:30 AM 37.4 °F 32.1 °F 32.0 °F 81% 29.56 in 6.2 mi SW 6.9 mph - N/A   Mostly Cloudy
5:00 AM 35.6 °F 28.0 °F 32.0 °F 87% 29.56 in 6.2 mi SW 10.4 mph - N/A   Scattered Clouds
5:30 AM 35.6 °F 28.0 °F 32.0 °F 87% 29.56 in 6.2 mi SSW 10.4 mph - N/A   Scattered Clouds
6:00 AM 35.6 °F 28.6 °F 32.0 °F 87% 29.56 in 6.2 mi SW 9.2 mph - N/A   Mostly Cloudy
6:30 AM 37.4 °F 30.3 °F 32.0 °F 81% 29.56 in 6.2 mi SW 10.4 mph - N/A   Mostly Cloudy
7:00 AM 37 °F - 34 °F 83% 29.57 in 12 mi SW 11.2 mph - -   Mostly Cloudy
7:00 AM 37.4 °F 30.8 °F 32.0 °F 81% 29.53 in 6.2 mi SW 9.2 mph - N/A   Mostly Cloudy
7:30 AM 35.6 °F 28.6 °F 32.0 °F 87% 29.53 in 6.2 mi SSW 9.2 mph - N/A   Scattered Clouds
8:00 AM 37.4 °F 30.3 °F 32.0 °F 81% 29.53 in 6.2 mi SSW 10.4 mph - N/A   Scattered Clouds
8:30 AM 37.4 °F 31.4 °F 32.0 °F 81% 29.53 in 6.2 mi SSW 8.1 mph - N/A   Partly Cloudy
9:00 AM 37.4 °F 31.4 °F 32.0 °F 81% 29.50 in 6.2 mi SSW 8.1 mph - N/A   Partly Cloudy
9:30 AM 37.4 °F 30.3 °F 33.8 °F 87% 29.50 in 6.2 mi SSW 10.4 mph - N/A   Partly Cloudy
10:00 AM 40 °F - 34 °F 72% 29.53 in 12 mi SSW 11.2 mph - -   Scattered Clouds
10:00 AM 39.2 °F 32.0 °F 32.0 °F 75% 29.50 in - SSW 11.5 mph - N/A   Clear
10:30 AM 41.0 °F 33.1 °F 33.8 °F 76% 29.50 in - SW 15.0 mph - N/A   Clear
11:00 AM 42.8 °F 35.8 °F 33.8 °F 70% 29.50 in 6.2 mi SW 13.8 mph - N/A   Partly Cloudy
11:30 AM 42.8 °F 36.6 °F 33.8 °F 70% 29.47 in 6.2 mi SW 11.5 mph - N/A   Partly Cloudy
12:00 PM 42.8 °F 35.8 °F 33.8 °F 70% 29.47 in 6.2 mi SSW 13.8 mph - N/A   Scattered Clouds
12:30 PM 42.8 °F 35.8 °F 33.8 °F 70% 29.44 in 6.2 mi SSW 13.8 mph - N/A   Scattered Clouds
1:00 PM 43 °F - 35 °F 64% 29.46 in 12 mi SSW 13.4 mph - -   Scattered Clouds
1:00 PM 42.8 °F 36.6 °F 33.8 °F 70% 29.44 in 6.2 mi SSW 11.5 mph - N/A   Partly Cloudy
1:30 PM 42.8 °F 35.4 °F 33.8 °F 70% 29.42 in 6.2 mi SSW 15.0 mph - N/A   Partly Cloudy
2:00 PM 44.6 °F 38.4 °F 33.8 °F 66% 29.42 in 6.2 mi SSW 12.7 mph - N/A   Partly Cloudy
2:30 PM 44.6 °F 38.1 °F 33.8 °F 66% 29.39 in 6.2 mi SSW 13.8 mph - N/A   Scattered Clouds
3:00 PM 44.6 °F 38.1 °F 32.0 °F 61% 29.39 in 6.2 mi SSW 13.8 mph - N/A   Scattered Clouds
3:30 PM 41.0 °F 35.8 °F 33.8 °F 76% 29.36 in 6.2 mi SW 8.1 mph - N/A   Scattered Clouds
4:00 PM 42 °F - 34 °F 65% 29.37 in 12 mi SSW 13.4 mph - - Rain Light Rain Showers
4:00 PM 42.8 °F 38.0 °F 33.8 °F 70% 29.36 in 6.2 mi South 8.1 mph 19.6 mph N/A Rain Light Rain Showers
4:30 PM 42.8 °F 36.2 °F 32.0 °F 66% 29.33 in 6.2 mi SSW 12.7 mph - N/A   Mostly Cloudy
5:00 PM 42.8 °F 35.4 °F 32.0 °F 66% 29.30 in 6.2 mi South 15.0 mph 27.6 mph N/A   Scattered Clouds
5:30 PM 42.8 °F 35.8 °F 32.0 °F 66% 29.30 in 6.2 mi South 13.8 mph - N/A   Mostly Cloudy
6:00 PM 35.6 °F 23.2 °F 32.0 °F 87% 29.36 in 1.2 mi West 26.5 mph 44.9 mph N/A Hail , Thunderstorm Thunderstorms with Hail
6:30 PM 33.8 °F 25.8 °F 32.0 °F 93% 29.36 in 6.2 mi WSW 10.4 mph - N/A   Mostly Cloudy
7:00 PM 35 °F - 33 °F 87% 29.37 in 12 mi SW 11.2 mph - - Thunderstorm Light Thunderstorm
7:00 PM 35.6 °F 28.0 °F 32.0 °F 87% 29.33 in 6.2 mi SW 10.4 mph - N/A   Partly Cloudy
7:30 PM 35.6 °F 27.5 °F 32.0 °F 87% 29.36 in 6.2 mi SW 11.5 mph - N/A   Scattered Clouds
8:00 PM 35.6 °F 26.2 °F 32.0 °F 87% 29.39 in 6.2 mi WSW 15.0 mph - N/A   Mostly Cloudy
8:30 PM 35.6 °F 26.2 °F 30.2 °F 81% 29.39 in 6.2 mi WSW 15.0 mph - N/A   Scattered Clouds
9:00 PM 35.6 °F 26.6 °F 30.2 °F 81% 29.39 in 6.2 mi WSW 13.8 mph - N/A   Scattered Clouds
9:30 PM 33.8 °F 25.8 °F 30.2 °F 87% 29.39 in - WSW 10.4 mph - N/A   Clear
10:00 PM 33 °F - 30 °F 82% 29.44 in 12 mi WSW 11.2 mph - -  
10:00 PM 33.8 °F 25.3 °F 28.4 °F 81% 29.42 in - WSW 11.5 mph - N/A   Clear
10:30 PM 33.8 °F 25.8 °F 28.4 °F 81% 29.42 in 6.2 mi SW 10.4 mph - N/A   Partly Cloudy
11:00 PM 33.8 °F 26.4 °F 28.4 °F 81% 29.42 in 6.2 mi SW 9.2 mph - N/A   Partly Cloudy
11:30 PM 33.8 °F 27.0 °F 28.4 °F 81% 29.42 in 6.2 mi WSW 8.1 mph - N/A   Partly Cloudy